| time (UTC) | temp F | wind direction | speed knots | gust knots | rain 1hr in | rain 24hr in | rain mn in | humidity % | barometer mb |
| 20260506193204 | 51 | 91 | 2.6 | 6.1 | 0.00 | 0.00 | 0.00 | 72 | 1010.8 |
| 20260506191704 | 52 | 92 | 1.7 | 2.6 | 0.00 | 0.00 | 0.00 | 70 | 1010.6 |
| 20260506191205 | 52 | 92 | 1.7 | 2.6 | 0.00 | 0.00 | 0.00 | 70 | 1010.5 |
| 20260506190705 | 52 | 95 | 1.7 | 2.6 | 0.00 | 0.00 | 0.00 | 69 | 1010.4 |
| 20260506190205 | 52 | 96 | 1.7 | 2.6 | 0.00 | 0.00 | 0.00 | 68 | 1010.4 |
| 20260506185705 | 53 | 94 | 1.7 | 2.6 | 0.00 | 0.00 | 0.00 | 68 | 1010.3 |
| 20260506185205 | 53 | 96 | 2.6 | 4.3 | 0.00 | 0.00 | 0.00 | 67 | 1010.3 |
| 20260506184704 | 53 | 78 | 2.6 | 4.3 | 0.00 | 0.00 | 0.00 | 67 | 1010.2 |
| 20260506184205 | 54 | 101 | 1.7 | 2.6 | 0.00 | 0.00 | 0.00 | 66 | 1010.1 |
| 20260506183704 | 54 | 101 | 1.7 | 2.6 | 0.00 | 0.00 | 0.00 | 66 | 1010.1 |
| 20260506183205 | 54 | 102 | 1.7 | 5.2 | 0.00 | 0.00 | 0.00 | 66 | 1010.1 |
| 20260506182705 | 54 | 96 | 1.7 | 7.0 | 0.00 | 0.00 | 0.00 | 65 | 1009.9 |
| 20260506182205 | 54 | 87 | 3.5 | 6.1 | 0.00 | 0.00 | 0.00 | 65 | 1010.0 |
| 20260506181704 | 54 | 86 | 2.6 | 6.1 | 0.00 | 0.00 | 0.00 | 65 | 1009.9 |
| 20260506180705 | 55 | 84 | 3.5 | 7.0 | 0.00 | 0.00 | 0.00 | 65 | 1009.9 |
| 20260506180204 | 55 | 100 | 3.5 | 6.1 | 0.00 | 0.00 | 0.00 | 66 | 1009.8 |
| 20260506175705 | 55 | 104 | 2.6 | 5.2 | 0.00 | 0.00 | 0.00 | 67 | 1009.8 |
| 20260506175205 | 55 | 117 | 2.6 | 7.0 | 0.00 | 0.00 | 0.00 | 67 | 1009.8 |
| 20260506174705 | 55 | 148 | 3.5 | 6.1 | 0.00 | 0.00 | 0.00 | 67 | 1009.8 |
| 20260506174204 | 55 | 102 | 4.3 | 7.8 | 0.00 | 0.00 | 0.00 | 66 | 1009.7 |
| 20260506173704 | 56 | 108 | 3.5 | 7.8 | 0.00 | 0.00 | 0.00 | 66 | 1009.7 |
| 20260506173205 | 56 | 115 | 4.3 | 7.0 | 0.00 | 0.00 | 0.00 | 64 | 1009.6 |
| 20260506172705 | 56 | 90 | 2.6 | 5.2 | 0.00 | 0.00 | 0.00 | 60 | 1009.6 |
| 20260506171204 | 57 | 74 | 3.5 | 7.8 | 0.00 | 0.00 | 0.00 | 53 | 1009.4 |
| 20260506170705 | 57 | 58 | 2.6 | 6.1 | 0.00 | 0.00 | 0.00 | 53 | 1009.4 |
| 20260506170205 | 57 | 39 | 4.3 | 7.8 | 0.00 | 0.00 | 0.00 | 52 | 1009.4 |
| 20260506165704 | 57 | 49 | 4.3 | 8.7 | 0.00 | 0.00 | 0.00 | 52 | 1009.3 |
| 20260506164705 | 58 | 70 | 3.5 | 7.0 | 0.00 | 0.00 | 0.00 | 50 | 1009.3 |
| 20260506164205 | 58 | 43 | 4.3 | 10.4 | 0.00 | 0.00 | 0.00 | 49 | 1009.3 |
| 20260506163704 | 58 | 54 | 2.6 | 10.4 | 0.00 | 0.00 | 0.00 | 50 | 1009.4 |
| 20260506163204 | 58 | 49 | 4.3 | 10.4 | 0.00 | 0.00 | 0.00 | 50 | 1009.4 |
| 20260506162705 | 58 | 72 | 4.3 | 10.4 | 0.00 | 0.00 | 0.00 | 49 | 1009.4 |
| 20260506162205 | 58 | 60 | 5.2 | 8.7 | 0.00 | 0.00 | 0.00 | 50 | 1009.5 |
| 20260506161704 | 58 | 78 | 4.3 | 7.8 | 0.00 | 0.00 | 0.00 | 50 | 1009.5 |
| 20260506160705 | 59 | 50 | 4.3 | 7.8 | 0.00 | 0.00 | 0.00 | 49 | 1009.5 |
| 20260506160205 | 59 | 49 | 5.2 | 11.3 | 0.00 | 0.00 | 0.00 | 49 | 1009.4 |
| 20260506154704 | 59 | 86 | 4.3 | 10.4 | 0.00 | 0.00 | 0.00 | 49 | 1009.4 |
| 20260506154204 | 59 | 60 | 5.2 | 8.7 | 0.00 | 0.00 | 0.00 | 48 | 1009.4 |
| 20260506153705 | 59 | 43 | 4.3 | 10.4 | 0.00 | 0.00 | 0.00 | 49 | 1009.4 |
| 20260506153204 | 59 | 64 | 4.3 | 7.0 | 0.00 | 0.00 | 0.00 | 47 | 1009.5 |
| 20260506152705 | 59 | 34 | 2.6 | 7.8 | 0.00 | 0.00 | 0.00 | 49 | 1009.4 |
| 20260506152205 | 59 | 66 | 6.1 | 10.4 | 0.00 | 0.00 | 0.00 | 49 | 1009.5 |
| 20260506151704 | 59 | 68 | 6.1 | 10.4 | 0.00 | 0.00 | 0.00 | 49 | 1009.4 |
| 20260506150706 | 60 | 47 | 5.2 | 11.3 | 0.00 | 0.00 | 0.00 | 48 | 1009.4 |
| 20260506145705 | 60 | 38 | 4.3 | 10.4 | 0.00 | 0.00 | 0.00 | 49 | 1009.5 |
| 20260506144705 | 59 | 66 | 4.3 | 10.4 | 0.00 | 0.00 | 0.00 | 50 | 1009.4 |
| 20260506144205 | 59 | 55 | 5.2 | 10.4 | 0.00 | 0.00 | 0.00 | 49 | 1009.4 |
| 20260506143205 | 59 | 69 | 5.2 | 12.2 | 0.00 | 0.00 | 0.00 | 49 | 1009.4 |
| 20260506142705 | 59 | 39 | 6.1 | 10.4 | 0.00 | 0.00 | 0.00 | 50 | 1009.4 |
| 20260506142204 | 59 | 59 | 5.2 | 13.0 | 0.00 | 0.00 | 0.00 | 51 | 1009.4 |
| 20260506141705 | 59 | 55 | 6.1 | 11.3 | 0.00 | 0.00 | 0.00 | 50 | 1009.4 |
| 20260506141204 | 59 | 45 | 6.1 | 10.4 | 0.00 | 0.00 | 0.00 | 50 | 1009.5 |
| 20260506140705 | 59 | 60 | 6.1 | 11.3 | 0.00 | 0.00 | 0.00 | 50 | 1009.4 |
| 20260506140205 | 60 | 24 | 4.3 | 10.4 | 0.00 | 0.00 | 0.00 | 49 | 1009.5 |
| 20260506135705 | 60 | 48 | 6.1 | 12.2 | 0.00 | 0.00 | 0.00 | 49 | 1009.5 |
| 20260506135205 | 61 | 65 | 4.3 | 10.4 | 0.00 | 0.00 | 0.00 | 48 | 1009.5 |
| 20260506134705 | 61 | 47 | 5.2 | 10.4 | 0.00 | 0.00 | 0.00 | 49 | 1009.4 |
| 20260506134205 | 61 | 35 | 4.3 | 8.7 | 0.00 | 0.00 | 0.00 | 50 | 1009.4 |
| 20260506133705 | 61 | 15 | 4.3 | 11.3 | 0.00 | 0.00 | 0.00 | 51 | 1009.5 |
| 20260506132705 | 60 | 53 | 6.1 | 11.3 | 0.00 | 0.00 | 0.00 | 51 | 1009.5 |
| 20260506131705 | 61 | 55 | 6.1 | 11.3 | 0.00 | 0.00 | 0.00 | 52 | 1009.5 |
| 20260506130706 | 60 | 68 | 4.3 | 11.3 | 0.00 | 0.00 | 0.00 | 54 | 1009.4 |
| 20260506130205 | 60 | 17 | 1.7 | 8.7 | 0.00 | 0.00 | 0.00 | 54 | 1009.3 |
| 20260506125705 | 60 | 17 | 4.3 | 11.3 | 0.00 | 0.00 | 0.00 | 54 | 1009.4 |
| 20260506125205 | 60 | 339 | 3.5 | 10.4 | 0.00 | 0.00 | 0.00 | 55 | 1009.4 |
| 20260506124705 | 60 | 57 | 5.2 | 10.4 | 0.00 | 0.00 | 0.00 | 54 | 1009.4 |
| 20260506123705 | 60 | 28 | 7.0 | 13.0 | 0.00 | 0.00 | 0.00 | 55 | 1009.4 |
| 20260506123205 | 60 | 37 | 5.2 | 11.3 | 0.00 | 0.00 | 0.00 | 55 | 1009.5 |
| 20260506122204 | 60 | 41 | 5.2 | 10.4 | 0.00 | 0.00 | 0.00 | 53 | 1009.4 |
| 20260506121205 | 60 | 64 | 6.1 | 11.3 | 0.00 | 0.00 | 0.00 | 53 | 1009.4 |
| 20260506120706 | 60 | 38 | 4.3 | 10.4 | 0.00 | 0.00 | 0.00 | 55 | 1009.5 |
| 20260506115705 | 60 | 64 | 6.1 | 10.4 | 0.00 | 0.00 | 0.00 | 54 | 1009.4 |
| 20260506114205 | 59 | 29 | 4.3 | 13.0 | 0.00 | 0.00 | 0.00 | 57 | 1009.5 |
| 20260506113205 | 59 | 9 | 6.1 | 13.0 | 0.00 | 0.00 | 0.00 | 58 | 1009.6 |
| 20260506112705 | 59 | 47 | 6.1 | 8.7 | 0.00 | 0.00 | 0.00 | 57 | 1009.6 |
| 20260506112205 | 59 | 50 | 7.0 | 10.4 | 0.00 | 0.00 | 0.00 | 57 | 1009.7 |
| 20260506111705 | 59 | 7 | 6.1 | 13.9 | 0.00 | 0.00 | 0.00 | 59 | 1009.7 |
| 20260506111205 | 59 | 41 | 7.8 | 12.2 | 0.00 | 0.00 | 0.00 | 58 | 1009.7 |
| 20260506110205 | 58 | 35 | 7.0 | 11.3 | 0.00 | 0.00 | 0.00 | 60 | 1009.7 |
| 20260506105705 | 58 | 31 | 7.0 | 11.3 | 0.00 | 0.00 | 0.00 | 59 | 1009.7 |
| 20260506105205 | 58 | 68 | 6.1 | 11.3 | 0.00 | 0.00 | 0.00 | 59 | 1009.7 |
| 20260506104705 | 58 | 71 | 6.1 | 13.0 | 0.00 | 0.00 | 0.00 | 59 | 1009.7 |
| 20260506104205 | 58 | 8 | 3.5 | 10.4 | 0.00 | 0.00 | 0.00 | 61 | 1009.7 |
| 20260506103705 | 58 | 54 | 6.1 | 13.0 | 0.00 | 0.00 | 0.00 | 60 | 1009.8 |
| 20260506102705 | 58 | 55 | 6.1 | 11.3 | 0.00 | 0.00 | 0.00 | 60 | 1009.9 |
| 20260506102205 | 58 | 26 | 6.1 | 10.4 | 0.00 | 0.00 | 0.00 | 59 | 1009.8 |
| 20260506101705 | 58 | 49 | 4.3 | 8.7 | 0.00 | 0.00 | 0.00 | 60 | 1009.9 |
| 20260506101205 | 58 | 37 | 7.8 | 12.2 | 0.00 | 0.00 | 0.00 | 59 | 1009.8 |
| 20260506100705 | 58 | 56 | 5.2 | 11.3 | 0.00 | 0.00 | 0.00 | 59 | 1009.8 |
| 20260506100205 | 58 | 15 | 6.1 | 10.4 | 0.00 | 0.00 | 0.00 | 59 | 1009.9 |
| 20260506095706 | 58 | 52 | 6.1 | 10.4 | 0.00 | 0.00 | 0.00 | 58 | 1009.9 |
| 20260506095205 | 58 | 29 | 8.7 | 13.0 | 0.00 | 0.00 | 0.00 | 58 | 1009.9 |
| 20260506094705 | 58 | 99 | 5.2 | 10.4 | 0.00 | 0.00 | 0.00 | 58 | 1009.9 |
| 20260506094205 | 57 | 36 | 4.3 | 11.3 | 0.00 | 0.00 | 0.00 | 59 | 1009.9 |
| 20260506093705 | 57 | 71 | 6.1 | 12.2 | 0.00 | 0.00 | 0.00 | 59 | 1010.0 |
| 20260506093205 | 57 | 47 | 6.1 | 11.3 | 0.00 | 0.00 | 0.00 | 58 | 1010.1 |
| 20260506092705 | 56 | 67 | 6.1 | 10.4 | 0.00 | 0.00 | 0.00 | 58 | 1010.1 |
| 20260506092205 | 56 | 59 | 7.8 | 12.2 | 0.00 | 0.00 | 0.00 | 58 | 1010.1 |
| 20260506091204 | 56 | 50 | 6.1 | 13.0 | 0.00 | 0.00 | 0.00 | 55 | 1010.2 |
| 20260506090705 | 56 | 29 | 6.1 | 13.0 | 0.00 | 0.00 | 0.00 | 55 | 1010.2 |
| 20260506090205 | 56 | 37 | 7.0 | 13.9 | 0.00 | 0.00 | 0.00 | 55 | 1010.1 |
| 20260506073205 | 54 | 90 | 7.0 | 10.4 | 0.00 | 0.00 | 0.00 | 61 | 1009.9 |
| 20260506072205 | 54 | 63 | 7.0 | 11.3 | 0.00 | 0.00 | 0.00 | 66 | 1009.8 |
| 20260506071705 | 54 | 62 | 5.2 | 10.4 | 0.00 | 0.00 | 0.00 | 66 | 1009.8 |
| 20260506071205 | 53 | 56 | 6.1 | 11.3 | 0.00 | 0.00 | 0.00 | 67 | 1009.8 |
| 20260506070705 | 53 | 76 | 5.2 | 10.4 | 0.00 | 0.00 | 0.00 | 68 | 1009.8 |
| 20260506062205 | 50 | 58 | 7.8 | 12.2 | 0.00 | 0.00 | 0.00 | 81 | 1009.8 |
| 20260506061705 | 50 | 56 | 4.3 | 10.4 | 0.00 | 0.00 | 0.00 | 85 | 1009.8 |
| 20260506061205 | 50 | 59 | 3.5 | 10.4 | 0.00 | 0.00 | 0.00 | 87 | 1009.8 |
| 20260506060205 | 49 | 39 | 2.6 | 7.0 | 0.00 | 0.00 | 0.00 | 87 | 1009.8 |
| 20260506051205 | 44 | 44 | 0.9 | 2.6 | 0.00 | 0.00 | 0.00 | 89 | 1009.9 |
| 20260506050705 | 44 | 30 | 2.6 | 4.3 | 0.00 | 0.00 | 0.00 | 89 | 1009.9 |
| 20260506050205 | 43 | 42 | 1.7 | 4.3 | 0.00 | 0.00 | 0.00 | 89 | 1009.9 |
| 20260506044705 | 42 | 32 | 2.6 | 4.3 | 0.00 | 0.00 | 0.00 | 90 | 1009.9 |
| 20260506043205 | 41 | 344 | 1.7 | 2.6 | 0.00 | 0.00 | 0.00 | 90 | 1009.9 |
| 20260506042705 | 41 | 337 | 1.7 | 2.6 | 0.00 | 0.00 | 0.00 | 90 | 1009.9 |
| 20260506041705 | 41 | 0 | 1.7 | 2.6 | 0.00 | 0.00 | 0.00 | 90 | 1010.0 |
| 20260506041205 | 41 | 0 | 1.7 | 4.3 | 0.00 | 0.00 | 0.00 | 90 | 1010.0 |
| 20260506040705 | 41 | 31 | 1.7 | 4.3 | 0.00 | 0.00 | 0.00 | 90 | 1010.0 |
| 20260506040205 | 41 | 30 | 1.7 | 2.6 | 0.00 | 0.00 | 0.00 | 90 | 1010.0 |
| 20260506035705 | 41 | 15 | 2.6 | 4.3 | 0.00 | 0.00 | 0.00 | 90 | 1010.0 |
| 20260506035205 | 41 | 11 | 1.7 | 4.3 | 0.00 | 0.00 | 0.00 | 90 | 1010.0 |
| 20260506034705 | 41 | 15 | 1.7 | 4.3 | 0.00 | 0.00 | 0.00 | 90 | 1010.0 |
| 20260506034205 | 41 | 16 | 1.7 | 5.2 | 0.00 | 0.00 | 0.00 | 90 | 1010.0 |
| 20260506033205 | 41 | 26 | 1.7 | 4.3 | 0.00 | 0.00 | 0.00 | 90 | 1010.0 |
| 20260506032705 | 41 | 27 | 1.7 | 4.3 | 0.00 | 0.00 | 0.00 | 90 | 1010.1 |
| 20260506032205 | 40 | 22 | 2.6 | 6.1 | 0.00 | 0.00 | 0.00 | 89 | 1010.1 |
| 20260506031705 | 40 | 15 | 1.7 | 6.1 | 0.00 | 0.00 | 0.00 | 89 | 1010.1 |
| 20260506031205 | 40 | 16 | 1.7 | 4.3 | 0.00 | 0.00 | 0.00 | 89 | 1010.2 |
| 20260506030205 | 40 | 29 | 2.6 | 4.3 | 0.00 | 0.00 | 0.00 | 89 | 1010.2 |
| 20260506025705 | 40 | 17 | 1.7 | 2.6 | 0.00 | 0.00 | 0.00 | 88 | 1010.2 |
| 20260506025204 | 41 | 23 | 1.7 | 4.3 | 0.00 | 0.00 | 0.00 | 88 | 1010.1 |
| 20260506024705 | 41 | 358 | 2.6 | 5.2 | 0.00 | 0.00 | 0.00 | 89 | 1010.1 |
| 20260506024205 | 41 | 0 | 2.6 | 7.0 | 0.00 | 0.00 | 0.00 | 88 | 1010.1 |
| 20260506023705 | 41 | 32 | 2.6 | 4.3 | 0.00 | 0.00 | 0.00 | 88 | 1010.2 |
| 20260506023205 | 41 | 35 | 2.6 | 5.2 | 0.00 | 0.00 | 0.00 | 88 | 1010.2 |
| 20260506022704 | 41 | 24 | 2.6 | 4.3 | 0.00 | 0.00 | 0.00 | 88 | 1010.2 |
| 20260506022204 | 41 | 31 | 2.6 | 4.3 | 0.00 | 0.00 | 0.00 | 88 | 1010.3 |
| 20260506021705 | 41 | 14 | 2.6 | 4.3 | 0.00 | 0.00 | 0.00 | 88 | 1010.3 |
| 20260506021205 | 41 | 3 | 2.6 | 5.2 | 0.00 | 0.00 | 0.00 | 87 | 1010.3 |
| 20260506020705 | 41 | 40 | 1.7 | 4.3 | 0.00 | 0.00 | 0.00 | 87 | 1010.4 |
| 20260506020205 | 41 | 35 | 2.6 | 4.3 | 0.00 | 0.00 | 0.00 | 87 | 1010.4 |
| 20260506015705 | 41 | 358 | 1.7 | 5.2 | 0.00 | 0.00 | 0.00 | 87 | 1010.5 |
| 20260506015205 | 41 | 355 | 1.7 | 2.6 | 0.00 | 0.00 | 0.00 | 87 | 1010.4 |
| 20260506014704 | 41 | 10 | 2.6 | 4.3 | 0.00 | 0.00 | 0.00 | 86 | 1010.3 |
| 20260506014205 | 41 | 340 | 1.7 | 4.3 | 0.00 | 0.00 | 0.00 | 86 | 1010.3 |
| 20260506013205 | 41 | 23 | 1.7 | 4.3 | 0.00 | 0.00 | 0.00 | 86 | 1010.3 |
| 20260506012205 | 41 | 350 | 2.6 | 7.0 | 0.00 | 0.00 | 0.00 | 87 | 1010.3 |
| 20260506011705 | 41 | 349 | 2.6 | 2.6 | 0.00 | 0.00 | 0.00 | 87 | 1010.3 |
| 20260506011204 | 42 | 0 | 0.9 | 2.6 | 0.00 | 0.00 | 0.00 | 88 | 1010.3 |
| 20260506010705 | 42 | 6 | 1.7 | 2.6 | 0.00 | 0.00 | 0.00 | 88 | 1010.2 |
| 20260506010205 | 42 | 357 | 1.7 | 2.6 | 0.00 | 0.00 | 0.00 | 88 | 1010.3 |
| 20260506005705 | 42 | 335 | 1.7 | 2.6 | 0.00 | 0.00 | 0.00 | 88 | 1010.3 |
| 20260506005205 | 42 | 62 | 0.0 | 0.0 | 0.00 | 0.00 | 0.00 | 88 | 1010.3 |
| 20260506004705 | 43 | 64 | 0.0 | 0.0 | 0.00 | 0.00 | 0.00 | 87 | 1010.2 |
| 20260506004205 | 43 | 64 | 0.0 | 0.0 | 0.00 | 0.00 | 0.00 | 88 | 1010.2 |
| 20260506003705 | 43 | 64 | 0.0 | 0.9 | 0.00 | 0.00 | 0.00 | 88 | 1010.1 |
| 20260506003205 | 43 | 64 | 1.7 | 2.6 | 0.00 | 0.00 | 0.00 | 88 | 1010.1 |
| 20260506002704 | 43 | 45 | 0.9 | 2.6 | 0.00 | 0.00 | 0.00 | 89 | 1010.1 |
| 20260506002205 | 44 | 45 | 0.9 | 2.6 | 0.00 | 0.00 | 0.00 | 89 | 1010.1 |
| 20260506001704 | 44 | 45 | 0.9 | 2.6 | 0.00 | 0.00 | 0.00 | 88 | 1010.1 |
| 20260506001204 | 44 | 45 | 1.7 | 2.6 | 0.00 | 0.00 | 0.00 | 88 | 1010.1 |
| 20260506000705 | 44 | 45 | 1.7 | 2.6 | 0.00 | 0.00 | 0.00 | 88 | 1010.2 |
| 20260506000205 | 44 | 45 | 0.9 | 2.6 | 0.00 | 0.00 | 0.00 | 88 | 1010.2 |
| 20260505235205 | 44 | 45 | 1.7 | 2.6 | 0.00 | 0.00 | 0.00 | 88 | 1010.2 |
| 20260505234704 | 44 | 45 | 1.7 | 2.6 | 0.00 | 0.00 | 0.00 | 88 | 1010.2 |
| 20260505234205 | 44 | 36 | 1.7 | 2.6 | 0.00 | 0.00 | 0.00 | 88 | 1010.2 |
| 20260505233205 | 44 | 35 | 0.9 | 2.6 | 0.00 | 0.00 | 0.00 | 87 | 1010.2 |
| 20260505232704 | 44 | 35 | 1.7 | 2.6 | 0.00 | 0.00 | 0.00 | 87 | 1010.2 |
| 20260505232205 | 44 | 35 | 0.9 | 2.6 | 0.00 | 0.00 | 0.00 | 86 | 1010.2 |
| 20260505231705 | 45 | 36 | 0.9 | 1.7 | 0.00 | 0.00 | 0.00 | 86 | 1010.3 |
| 20260505231205 | 45 | 35 | 0.9 | 2.6 | 0.00 | 0.00 | 0.00 | 87 | 1010.2 |
| 20260505230705 | 45 | 19 | 0.9 | 2.6 | 0.00 | 0.00 | 0.00 | 87 | 1010.2 |
| 20260505230205 | 45 | 12 | 0.9 | 2.6 | 0.00 | 0.00 | 0.00 | 87 | 1010.3 |
| 20260505225705 | 45 | 11 | 1.7 | 4.3 | 0.00 | 0.00 | 0.00 | 88 | 1010.3 |
| 20260505225205 | 45 | 34 | 1.7 | 2.6 | 0.00 | 0.00 | 0.00 | 88 | 1010.3 |
| 20260505224704 | 45 | 11 | 1.7 | 2.6 | 0.00 | 0.00 | 0.00 | 87 | 1010.4 |
| 20260505224205 | 46 | 22 | 0.9 | 1.7 | 0.00 | 0.00 | 0.00 | 87 | 1010.3 |
| 20260505223705 | 46 | 22 | 0.9 | 1.7 | 0.00 | 0.00 | 0.00 | 87 | 1010.4 |
| 20260505223205 | 46 | 22 | 0.9 | 2.6 | 0.00 | 0.00 | 0.00 | 86 | 1010.3 |
| 20260505221204 | 47 | 346 | 1.7 | 2.6 | 0.00 | 0.00 | 0.00 | 86 | 1010.4 |
| 20260505220707 | 47 | 55 | 0.9 | 2.6 | 0.00 | 0.00 | 0.00 | 86 | 1010.4 |
| 20260505220204 | 48 | 94 | 0.9 | 0.9 | 0.00 | 0.00 | 0.00 | 85 | 1010.2 |
| 20260505215705 | 48 | 94 | 0.0 | 0.9 | 0.00 | 0.00 | 0.00 | 85 | 1010.3 |
| 20260505215205 | 48 | 94 | 0.0 | 0.9 | 0.00 | 0.00 | 0.00 | 85 | 1010.3 |
| 20260505214705 | 48 | 94 | 0.0 | 0.0 | 0.00 | 0.00 | 0.00 | 85 | 1010.4 |
| 20260505214205 | 48 | 94 | 0.0 | 0.0 | 0.00 | 0.00 | 0.00 | 84 | 1010.4 |
| 20260505213204 | 49 | 94 | 0.0 | 0.0 | 0.00 | 0.00 | 0.00 | 84 | 1010.4 |
| 20260505212704 | 49 | 94 | 0.0 | 0.0 | 0.00 | 0.00 | 0.00 | 84 | 1010.4 |
| 20260505212205 | 49 | 94 | 0.0 | 0.0 | 0.00 | 0.00 | 0.00 | 84 | 1010.4 |
| 20260505211704 | 49 | 94 | 0.0 | 0.0 | 0.00 | 0.00 | 0.00 | 84 | 1010.4 |
| 20260505211205 | 49 | 94 | 0.0 | 0.0 | 0.00 | 0.00 | 0.00 | 83 | 1010.5 |
| 20260505210705 | 49 | 94 | 0.0 | 0.0 | 0.00 | 0.00 | 0.00 | 84 | 1010.5 |
| 20260505210205 | 49 | 94 | 0.0 | 0.0 | 0.00 | 0.00 | 0.00 | 83 | 1010.5 |
| 20260505205704 | 49 | 94 | 0.0 | 0.0 | 0.00 | 0.00 | 0.00 | 83 | 1010.5 |
| 20260505204705 | 49 | 94 | 0.0 | 0.0 | 0.00 | 0.00 | 0.00 | 82 | 1010.5 |
| 20260505204205 | 49 | 94 | 0.0 | 0.0 | 0.00 | 0.00 | 0.00 | 82 | 1010.5 |
| 20260505203704 | 49 | 94 | 0.0 | 0.0 | 0.00 | 0.00 | 0.00 | 82 | 1010.5 |
| 20260505203204 | 49 | 94 | 0.0 | 0.0 | 0.00 | 0.00 | 0.00 | 82 | 1010.5 |
| 20260505202704 | 49 | 94 | 0.0 | 0.0 | 0.00 | 0.00 | 0.00 | 81 | 1010.4 |
| 20260505202205 | 49 | 94 | 0.0 | 0.9 | 0.00 | 0.00 | 0.00 | 81 | 1010.4 |
| 20260505201205 | 49 | 94 | 0.0 | 0.9 | 0.00 | 0.00 | 0.00 | 81 | 1010.4 |
| 20260505200205 | 49 | 94 | 0.0 | 0.0 | 0.00 | 0.00 | 0.00 | 79 | 1010.3 |
| 20260505195704 | 49 | 94 | 0.0 | 0.0 | 0.00 | 0.00 | 0.00 | 79 | 1010.2 |
| 20260505195205 | 50 | 94 | 0.0 | 0.9 | 0.00 | 0.00 | 0.00 | 78 | 1010.3 |
| 20260505194705 | 50 | 94 | 0.9 | 1.7 | 0.00 | 0.00 | 0.00 | 77 | 1010.3 |
| 20260505193705 | 50 | 94 | 0.0 | 0.9 | 0.00 | 0.00 | 0.00 | 76 | 1010.2 |